星链-4769 (STARLINK-4769 )

导读

STARLINK-4769是美国SpaceX星链星座的成员,于2022年9月19日发射升空,属于星链低轨互联网卫星组网批次。它运行在近地轨道,主要承担全球互联网覆盖服务任务,为偏远地区、海上空中等场景提供宽带接入,是星链大规模组网进程中推进全球卫星互联网部署的一颗功能性卫星,延续了星链星座低轨通信的技术路径。

基本信息
目录编号:
53843
目录名称:
STARLINK-4769
国际标识:
2022-114AB
轨道中心:
EARTH
卫星名称:
星链-4769
卫星全名:
星链-4769 (STARLINK-4769 )
卫星状态:
在轨 (已飞行1454 天)
发射日期:
2022-09-19 UTC
国别 :
美国 (US)
星等 :
--
该卫星已列入 空间交会检测服务 Space Conjunction Data Service (SCDS) ,当前飞行风险评估等级: 无高风险
轨道信息
数据来源 国际轨道数据
星历时间: 2026-09-12T12:15:17+0800
6小时前
查看轨道信息
半长轴: 6917.902km
偏心率: 0.0001424
轨道倾角: 53.160°
近地点辐角 87.931°
升交点赤经 176.422°
平近点角 272.184°
近地点: 538.779km
远地点: 540.751km
周期: 95.438分钟
每日圈数: 15.088331
详细信息
固有亮度:
5
最大亮度:
2.5
卫星平台:
Starlink v1.5
覆盖范围:
全球
运营商:
太空探索技术公司
运营商所在国:
美国
制造商(研发单位):
太空探索技术公司
制造商所在国:
美国
使用方式:
暂无
卫星简介
星链(Starlink)计划是由太空探索技术公司(SpaceX)提出的一个巨型低轨卫星互联网星座项目,计划在2019年至2024年间在太空搭建由约1.2万颗卫星组成的“星链”网络,其中1584颗将部署在地球上空550千米处的近地轨道,并从2020年开始工作。该卫星仍在工作。
2D轨道图
3D轨道图
轨道高度分析图
轨道倾角分析图
轨道综合分析图
查看轨道综合分析图
与全量物体交会距离演化趋势
与全量物体交会风险概率演化趋势